Content
SEND FEEDBACK

Daily
Averages
Monthly
Summary
United States of America

TUCSON, ARIZONA


Home > North America > United States > Arizona
Elevation: 2584 feet     Latitude: 32 08N     Longitude: 110 56W

WEATHER
 
SELECT A DAY
Number of Records: 106,760;   Date Range: 1/1/02 - 7/29/14
 
SHARE

PRINT THIS DATA

[ ← Previous Day ]
WEATHER ALMANAC - JANUARY 29, 2013
[ Next Day → ]
[ °C ]   °F
Weather ElementAverageHighLow
Temperature44.1 °F52 °F (2:53 pm)37 °F (7:53 am)
Dewpoint25.4 °F35.1 °F (1:53 am)17.1 °F (12:53 pm)
Humidity51.7 %79 % (1:53 am)25 % (2:53 pm)
Barometer30.09 in30.19 in (11:53 pm)30.02 in (1:53 am)
Wind Speed9.5 mph18.4 mph (4:53 pm)
Wind Gust27.6 mph (1:53 pm)
Weather ElementAverage
Visibility10 mi
Wind DirectionWSW (243 °)

Weather ElementTotal
Precipitation---
Heating Degree Days20.5 (Base 65)
Averaged from 23 records on January 29, 2013
WEATHER CONDITIONS BREAKOUT
WIND DIRECTION BREAKOUT
WEATHER BY HOUR - JANUARY 29, 2013
[ °C ]   °F
Local TimeTemperatureDewpointHumidityBarometerVisibilityWind DirectionWind SpeedGust SpeedPrecipitationEventsConditions
1:53 AM41.0 °F35.1 °F79 %30.02 in10.0 miWest (260°)11.5 mphOvercast
2:53 AM41.0 °F34.0 °F76 %30.02 in10.0 miSW (220°)3.5 mphMostly Cloudy
3:53 AM41.0 °F34.0 °F76 %30.03 in10.0 miWSW (240°)3.5 mphOvercast
4:53 AM39.9 °F32.0 °F73 %30.02 in10.0 miWest (270°)10.4 mphMostly Cloudy
5:53 AM39.0 °F30.0 °F70 %30.04 in10.0 miWest (280°)11.5 mphClear
6:53 AM37.9 °F28.9 °F70 %30.06 in10.0 miWest (270°)9.2 mphClear
7:53 AM37.0 °F30.0 °F76 %30.09 in10.0 miSW (230°)6.9 mphClear
8:53 AM39.9 °F28.9 °F65 %30.10 in10.0 miWest (260°)11.5 mphClear
9:53 AM43.0 °F26.1 °F51 %30.11 in10.0 miWest (270°)13.8 mphClear
10:53 AM46.9 °F21.0 °F36 %30.11 in10.0 miWest (280°)15.0 mph19.6 mphClear
11:53 AM48.0 °F19.0 °F32 %30.11 in10.0 miWest (270°)12.7 mph23.0 mphClear
12:53 PM50.0 °F17.1 °F27 %30.08 in10.0 miWest (280°)16.1 mph25.3 mphClear
1:53 PM51.1 °F18.0 °F27 %30.06 in10.0 miWest (280°)16.1 mph27.6 mphClear
2:53 PM52.0 °F17.1 °F25 %30.04 in10.0 miWNW (300°)10.4 mph25.3 mphClear
3:53 PM52.0 °F19.9 °F28 %30.04 in10.0 miWNW (290°)12.7 mph23.0 mphClear
4:53 PM51.1 °F19.0 °F28 %30.06 in10.0 miWest (280°)18.4 mph26.5 mphClear
5:53 PM48.9 °F19.9 °F32 %30.08 in10.0 miWNW (290°)12.7 mph19.6 mphClear
6:53 PM48.0 °F21.0 °F34 %30.11 in10.0 miNW (320°)9.2 mphClear
7:53 PM45.0 °F24.1 °F44 %30.14 in10.0 miNorth (350°)5.8 mphClear
8:53 PM43.0 °F25.0 °F49 %30.16 in10.0 miCalmClear
9:53 PM41.0 °F27.0 °F57 %30.17 in10.0 miSouth (170°)4.6 mphClear
10:53 PM39.0 °F28.0 °F65 %30.18 in10.0 miCalmClear
11:53 PM37.9 °F28.0 °F68 %30.19 in10.0 miSouth (180°)3.5 mphClear
Hourly data recorded from KTUS, located miles away from Tucson, Arizona







STORIES FROM OUR PARTNERS